Location: Long Geng
(2.6167°N, 114.1333°E)
Time: 00:15:53
(UTC+00:00)

Cosmos 1484 Rocket - Pass Details

Date: 14 May 2021
Orbit: 504 x 559 km, 97.4° (Epoch: 12 June)

Event Time Altitude Azimuth Distance (km) Brightness Sun altitude
Rises 20:42:57 0° 1° (N) 2,656 6.6 -21.9°
Reaches altitude 10° 20:45:07 10° 355° (N) 1,760 5.6 -21.4°
Enters shadow 20:47:53 37° 319° (NW) 816 3.5 -20.8°
